Regional Weather Roundup
Issued by NWS

Home | Current Version | Previous Version | Graphics & Text | Print | Product List | Glossary On
Versions: 1 2 3 4 5 6 7 8 9 10 11 12 13 14 15 16 17 18 19 20 21 22 23 24 25 26 27 28 29 30 31 32 33 34 35 36 37 38 39 40 41 42 43 44 45 46 47 48 49 50
000
ASUS45 KPSR 211300
RWRAZ

PRELIMINARY ARIZONA REGIONAL HOURLY WEATHER ROUNDUP
NATIONAL WEATHER SERVICE PHOENIX AZ
600 AM MST THU AUG 21 2014

NOTE: FAIR INDICATES FEW OR NO CLOUDS BELOW 12,000 FEET WITH NO
SIGNIFICANT WEATHER AND/OR OBSTRUCTIONS TO VISIBILITY.

AZZ001>003-036-211400-
NORTHWEST ARIZONA

CITY           SKY/WX    TMP DP  RH WIND       PRES   REMARKS
KINGMAN        CLOUDY    71  51  49 SE14      30.04R
$$

AZZ004>008-015-016-018-211400-
NORTH CENTRAL ARIZONA

CITY           SKY/WX    TMP DP  RH WIND       PRES   REMARKS
GRAND CANYON     N/A    N/A N/A N/A MISG        N/A
WILLIAMS       PTCLDY    48  45  87 SE7       30.31R
PRESCOTT       MOCLDY    57  48  72 S5        30.15R
FLAGSTAFF      PTCLDY    47  44  90 CALM      30.27R
PAYSON         MOCLDY    61  54  77 CALM      30.16S
PAGE           PTCLDY    65  48  54 SW3       30.10R
$$

AZZ009>014-017-211400-
NORTHEAST ARIZONA

CITY           SKY/WX    TMP DP  RH WIND       PRES   REMARKS
WINSLOW        NOT AVBL
SAINT JOHNS    PTCLDY    59  50  72 CALM      30.18R
WINDOW ROCK    PTCLDY    53  38  56 CALM      30.25R
$$

AZZ023-211400-
GREATER PHOENIX AREA

CITY           SKY/WX    TMP DP  RH WIND       PRES   REMARKS
PHOENIX        CLOUDY    84  58  40 E5        29.88R
GLENDALE       MOCLDY    81  64  57 NW6       29.90
DEER VALLEY    CLOUDY    78  64  61 SE3       29.91R
SCOTTSDALE     CLOUDY    80  62  54 CALM      29.93R
MESA-GATEWAY   MOCLDY    79  61  53 SE7       29.92S
CHANDLER       MOCLDY    81  63  54 CALM      29.90
$$

AZZ027-028-211400-
SOUTHWEST MARICOPA COUNTY AND PINAL COUNTY

CITY           SKY/WX    TMP DP  RH WIND       PRES   REMARKS
CASA GRANDE    CLOUDY    79  57  47 CALM      29.92R
$$

AZZ503-504-507>509-211400-
SOUTHEAST ARIZONA

CITY           SKY/WX    TMP DP  RH WIND       PRES   REMARKS
TUCSON         CLOUDY    76  65  68 SE5       30.01R
NOGALES        CLOUDY    66  63  90 MISG      30.08R
SIERRA VISTA   MOCLDY    66  61  82 CALM      30.13R
SAFFORD        CLEAR     65  61  87 E3        30.01R
$$

AZZ020-021-025-026-031-211400-
SOUTHWEST ARIZONA

CITY           SKY/WX    TMP DP  RH WIND       PRES   REMARKS
YUMA           CLOUDY    84  64  50 E5        29.81R
$$

CAZ031-033-041-043-047-048-061-211400-
SOUTHERN CALIFORNIA

CITY           SKY/WX    TMP DP  RH WIND       PRES   REMARKS
DOWNTOWN L.A.  CLEAR     66  61  84 CALM      29.91F
L.A. AIRPORT   MOCLDY    67  60  78 NW8       29.93R
SAN DIEGO      CLOUDY    71  63  75 W6        29.92R
BURBANK        CLEAR     65  58  78 CALM      29.92S
ONTARIO        PTCLDY    65  59  81 CALM      29.93S
RIVERSIDE      CLEAR     65  61  87 CALM      29.93S
PALM SPRINGS   PTCLDY    79  56  45 VRB5      29.84R
EL CENTRO NAS  PTCLDY    80  53  39 SE5       29.79R
IMPERIAL       PTCLDY    81  52  36 SE3       29.79R
BLYTHE         CLEAR     78  72  81 E3        29.82R
$$

NVZ020-UTZ003-211400-
SOUTHERN NEVADA-UTAH

CITY           SKY/WX    TMP DP  RH WIND       PRES   REMARKS
LAS VEGAS      NOT AVBL
SALT LAKE CITY CLOUDY    67  52  58 S7        30.03R
$$

NMZ009-TXZ055-211400-
NEW MEXICO-WEST TEXAS

CITY           SKY/WX    TMP DP  RH WIND       PRES   REMARKS
ALBUQUERQUE    PTCLDY    66  44  45 CALM      30.15R
EL PASO        PTCLDY    70  50  49 S6        30.05R
$$


........................KEY........................
SKY/WX - SKY CONDITION/WEATHER
TMP    - TEMPERATURE IN FAHRENHEIT
DP     - DEW POINT IN FAHRENHEIT
RH     - RELATIVE HUMIDITY IN PERCENT
WIND   - DIRECTION AND SPEED IN MILES PER HOUR (MPH)
VRB    - VARIABLE WIND DIRECTION
PRES   - MEAN SEA LEVEL PRESSURE IN INCHES OF MERCURY
         F - FALLING PRESSURE   R - RISING PRESSURE
         S - STEADY PRESSURE
VSB    - VISIBILITY IN MILES
HX     - HEAT INDEX IN FAHRENHEIT
WCI    - WIND CHILL INDEX IN FAHRENHEIT
TC     - TEMPERATURE IN CELSIUS WHICH IS ALSO KNOWN AS
         TEMPERATURE IN CENTIGRADE
AFB    - AIR FORCE BASE
         LUKE AFB IS LUKE AIR FORCE BASE
         DAVIS-MONTHAN IS DAVIS-MONTHAN AIR FORCE BASE
NAS    - NAVAL AIR STATION
         EL CENTRO NAS IS EL CENTRO NAVAL AIR STATION
N/A    - NOT AVAILABLE



USA.gov is the U.S. government's official web portal to all federal, state and local government web resources and services.